Regional Weather Roundup
Issued by NWS

Home | Current Version | Previous Version | Graphics & Text | Print | Product List | Glossary On
Versions: 1 2 3 4 5 6 7 8 9 10 11 12 13 14 15 16 17 18 19 20 21 22 23 24 25 26 27 28 29 30 31 32 33 34 35 36 37 38 39 40 41 42 43 44 45 46 47 48 49 50
000
ASUS43 KBIS 020320
RWRND

NORTH DAKOTA REGIONAL WEATHER ROUNDUP
NATIONAL WEATHER SERVICE BISMARCK ND
1000 PM CDT WED OCT 01 2014

NOTE: "FAIR" INDICATES FEW OR NO CLOUDS BELOW 12,000 FEET WITH NO
SIGNIFICANT WEATHER AND/OR OBSTRUCTIONS TO VISIBILITY.


NDZ001>003-009>011-017-020400-
NORTHWEST NORTH DAKOTA

CITY           SKY/WX    TMP DP  RH WIND       PRES   REMARKS
WILLISTON      MOCLDY    50  43  77 W8        29.85R
MINOT          PTCLDY    48  44  86 SW7       29.79S
MINOT AFB      PTCLDY    48  47  99 W7        29.78S
$$

NDZ018>021-031>035-040>046-020400-
SOUTHWEST NORTH DAKOTA

CITY           SKY/WX    TMP DP  RH WIND       PRES   REMARKS
BISMARCK       CLOUDY    57  49  74 NW6       29.85R
DICKINSON      CLOUDY    50  44  80 W9        29.88R
GARRISON         N/A     51  46  83 W8        29.82S
HETTINGER ARPT MOCLDY    46  42  86 W3        29.92R
$$

NDZ004>008-012>016-024-026-027-054-020400-
NORTHEAST NORTH DAKOTA

CITY           SKY/WX    TMP DP  RH WIND       PRES   REMARKS
GRAND FORKS    CLOUDY    59  51  75 W6        29.73R
GRND FRKS AFB  CLOUDY    59  53  80 W8        29.74R
DEVILS LAKE    CLOUDY    54  45  71 W13       29.76R
$$

NDZ022-023-025-028>030-036>039-047>053-020400-
SOUTHEAST NORTH DAKOTA

CITY           SKY/WX    TMP DP  RH WIND       PRES   REMARKS
FARGO          CLOUDY    61  51  70 SW12      29.77R
JAMESTOWN      PTCLDY    55  49  80 W10       29.80R
$$



USA.gov is the U.S. government's official web portal to all federal, state and local government web resources and services.